Location: Asheville, NC
(35.6000°N, 82.5500°W)
Time: 22:59:41

BEESAT 3 - Pass Details

Date: 11 March 2018
Orbit: 494 x 524 km, 64.9° (Epoch: 20 March)

Event Time Altitude Azimuth Distance (km) Brightness Sun altitude
Exits shadow 05:23:11 13° 15° (NNE) 1,559 ? -29.6°
Maximum altitude 05:25:10 18° 51° (NE) 1,311 ? -29.2°
Drops below altitude 10° 05:27:50 10° 95° (E) 1,715 ? -28.7°
Sets 05:30:31 0° 115° (ESE) 2,589 ? -28.2°
